FW0428 Weather Reports


Display with metric or nautical units.
time (UTC)temp
F
wind
direction
speed
MPH
gust
MPH
rain 1hr
in
rain 24hr
in
rain mn
in
humidity
%
barometer
mb
20260508184700 78 243 1.0 4.0 0.00 0.00 0.00 58 1010.0
20260508183113 78 270 0.0 2.0 0.00 0.00 0.00 57 1010.4
20260508174614 77 119 0.0 3.0 0.00 0.00 0.00 61 1011.2
20260508164542 74 301 0.0 4.0 0.00 0.00 0.00 64 1012.5
20260508153031 70 287 1.0 4.0 0.00 0.00 0.00 70 1013.4
20260508150004 69 279 0.0 2.0 0.00 0.00 0.00 71 1013.9
20260508143023 67 250 1.0 2.0 0.00 0.00 0.00 73 1013.8
20260508114600 58 232 0.0 0.0 0.00 0.00 0.00 90 1013.1
20260508113110 58 232 0.0 0.0 0.00 0.00 0.00 90 1013.2
20260508103147 59 229 0.0 0.0 0.00 0.00 0.00 89 1013.7
20260508100059 59 180 0.0 0.0 0.00 0.00 0.00 87 1013.9
20260508093047 59 157 0.0 0.0 0.00 0.00 0.00 85 1013.7
20260508091558 60 157 0.0 0.0 0.00 0.00 0.00 86 1013.7
20260508071515 58 123 0.0 0.0 0.00 0.00 0.00 89 1014.1
20260508070014 58 123 0.0 0.0 0.00 0.00 0.00 88 1014.4
20260508064520 58 123 0.0 0.0 0.00 0.00 0.00 88 1014.3
20260508063017 58 123 0.0 0.0 0.00 0.00 0.00 89 1014.3
20260508061506 58 123 0.0 0.0 0.00 0.00 0.00 89 1014.3
20260508060032 58 123 0.0 0.0 0.00 0.00 0.00 89 1013.9
20260508054522 58 123 0.0 0.0 0.00 0.00 0.00 90 1014.1
20260508053106 59 123 0.0 0.0 0.00 0.00 0.00 89 1014.3
20260508051501 59 123 0.0 0.0 0.00 0.00 0.00 89 1014.3
20260508050150 59 123 0.0 0.0 0.00 0.00 0.00 89 1014.5
20260508034637 61 123 0.0 0.0 0.00 0.00 0.00 85 1014.6
20260508013137 64 123 0.0 0.0 0.00 0.00 0.00 80 1014.1
20260508011605 65 244 0.0 1.0 0.00 0.00 0.00 78 1014.3
20260508010026 65 254 0.0 0.0 0.00 0.00 0.00 75 1014.8
20260508004534 65 254 0.0 0.0 0.00 0.00 0.00 74 1014.3
20260508003110 65 254 0.0 0.0 0.00 0.00 0.00 74 1014.1
20260508001631 66 254 0.0 0.0 0.00 0.00 0.00 74 1014.1
20260507211622 69 257 0.0 2.0 0.00 0.00 0.00 64 1014.7
20260507210139 69 261 1.0 3.0 0.00 0.00 0.00 65 1014.5
20260507194559 69 257 1.0 3.0 0.00 0.00 0.00 63 1015.5